User: anonymous   Login
Location: Tucson
(32.2217°N, 110.9265°W)
Time: 02:07:49
(UTC-07:00)
Language:

LightSail 2 - Orbit

View from above orbital plane
View from above orbital plane
View from above satellite
View from above satellite

Ground track
Ground track

The orbit data is extracted from the following two-line orbital elements,

1 44420U 19036AC  20024.12569911  .00004789  00000-0  10605-2 0  9997
2 44420  24.0109 305.0913 0010368 329.5203  30.4715 14.54204395 29126
Epoch (UTC): 24 January 2020 03:01:00
Eccentricity: 0.0010368
inclination: 24.0109°
perigee height: 704 km
apogee height: 719 km
right ascension of ascending node: 305.0913°
argument of perigee: 329.5203°
revolutions per day: 14.54204395
mean anomaly at epoch: 30.4715°
orbit number at epoch: 2912

The dashed part of the orbit path shows where the satellite is in the earth's shadow,  

DLR